Weather History for KK22 - October, 2012

Change the Weather History Date:

Friday, October 5, 2012

  Actual Average (KJKL) Record (KJKL)
Temperature  
Mean Temperature 66 °F 61 °F  
Max Temperature 77 °F 71 °F 87 °F (2005)
Min Temperature 55 °F 51 °F 36 °F (1988)
Degree Days  
Heating Degree Days 0 5  
Month to date heating degree days 25  
Since 1 July heating degree days 77  
Cooling Degree Days 1 2  
Month to date cooling degree days 10  
Year to date cooling degree days 1131  
Growing Degree Days 16 (Base 50)    
Moisture  
Dew Point 56 °F    
Average Humidity 73    
Maximum Humidity 94    
Minimum Humidity 47    
Precipitation  
Precipitation 0.00 in 0.10 in 1.50 in (1991)
Month to date precipitation 0.50  
Year to date precipitation 37.51  
Snow  
Snow - 0.00 in - ()
Month to date snowfall 0.0  
Since 1 July snowfall 0.0  
Since 1 September snowfall 0.0  
Snow Depth -    
Sea Level Pressure  
Sea Level Pressure 30.17 in    
Wind  
Wind Speed 4 mph ()    
Max Wind Speed 9 mph    
Max Gust Speed -    
Visibility 10.0 miles    
Events      
T = Trace of Precipitation, MM = Missing Value Source: Averaged Metar Reports

Daily Weather History Graph

Daily Weather History Graph

Search for Another Location

Airport or City:

Trip Planner

Search our weather history database for the weather conditions in past years. The results will help you decide how hot, cold, wet, or windy it might be!

Date:

Astronomy

Oct. 05, 2012 Rise Set
Actual Time 7:30 AM EDT 7:06 PM EDT
Civil Twilight 7:03 AM EDT 7:33 PM EDT
Nautical Twilight 6:33 AM EDT 8:03 PM EDT
Astronomical Twilight 6:03 AM EDT 8:33 PM EDT
Moon 10:34 PM EDT (10/5) 12:31 PM EDT (10/5)
Length of Visible Light 12h 29m
Length of Day
11h 36m
Waning Gibbous, 74% of the Moon is Illuminated
Oct 5
Waning Gibbous
Oct 8
Last Quarter
Oct 15
New
Oct 21
First Quarter
Oct 29
Full

Hourly Weather History & Observations

Time (EDT) Temp. Dew Point Humidity Pressure Visibility Wind Dir Wind Speed Gust Speed Precip Events Conditions
12:15 AM 61.2 °F 56.1 °F 83% 30.27 in 10.0 mi SSW 4.6 mph - N/A   Clear
12:35 AM 60.8 °F 55.8 °F 83% 30.27 in 10.0 mi SSW 4.6 mph - N/A   Clear
12:55 AM 60.1 °F 55.8 °F 86% 30.27 in 10.0 mi SSW 4.6 mph - N/A   Clear
1:15 AM 60.1 °F 55.8 °F 86% 30.26 in 10.0 mi SSW 4.6 mph - N/A   Clear
1:35 AM 59.4 °F 55.4 °F 87% 30.26 in 10.0 mi South 3.5 mph - N/A   Clear
1:55 AM 59.9 °F 55.4 °F 85% 30.26 in 10.0 mi South 4.6 mph - N/A   Clear
2:15 AM 59.4 °F 55.4 °F 87% 30.27 in 10.0 mi SSW 4.6 mph - N/A   Clear
2:35 AM 58.3 °F 55.4 °F 90% 30.27 in 10.0 mi SSW 4.6 mph - N/A   Clear
2:55 AM 58.5 °F 55.4 °F 90% 30.26 in 10.0 mi SSW 3.5 mph - N/A   Clear
3:15 AM 58.1 °F 55.4 °F 91% 30.25 in 10.0 mi SSW 3.5 mph - N/A   Clear
3:35 AM 58.1 °F 55.0 °F 90% 30.25 in 10.0 mi Calm Calm - N/A   Clear
3:55 AM 57.7 °F 54.7 °F 90% 30.24 in 10.0 mi Calm Calm - N/A   Clear
4:15 AM 57.9 °F 54.7 °F 89% 30.24 in 10.0 mi Calm Calm - N/A   Clear
4:55 AM 58.1 °F 54.7 °F 88% 30.24 in 10.0 mi South 4.6 mph - N/A   Clear
5:15 AM 57.2 °F 54.5 °F 91% 30.24 in 10.0 mi SSW 3.5 mph - N/A   Clear
5:55 AM 56.8 °F 54.1 °F 91% 30.23 in 10.0 mi South 4.6 mph - N/A   Clear
6:15 AM 56.5 °F 54.0 °F 91% 30.24 in 10.0 mi SSW 4.6 mph - N/A   Clear
6:35 AM 56.3 °F 53.8 °F 91% 30.24 in 10.0 mi SSW 4.6 mph - N/A   Clear
6:55 AM 55.4 °F 53.6 °F 94% 30.24 in 10.0 mi SSW 3.5 mph - N/A   Clear
7:15 AM 55.9 °F 53.6 °F 92% 30.25 in 10.0 mi Calm Calm - N/A   Clear
7:35 AM 55.8 °F 53.6 °F 92% 30.25 in 10.0 mi SSW 3.5 mph - N/A   Clear
7:55 AM 55.8 °F 53.6 °F 92% 30.25 in 10.0 mi Calm Calm - N/A   Clear
8:35 AM 57.7 °F 54.5 °F 89% 30.25 in 10.0 mi South 3.5 mph - N/A   Clear
8:55 AM 58.8 °F 54.9 °F 87% 30.25 in 10.0 mi South 3.5 mph - N/A   Clear
9:15 AM 60.8 °F 55.6 °F 83% 30.24 in 10.0 mi South 4.6 mph - N/A   Clear
9:35 AM 61.9 °F 55.9 °F 81% 30.25 in 10.0 mi SSW 5.8 mph - N/A   Clear
9:55 AM 62.6 °F 55.8 °F 78% 30.24 in 10.0 mi SSW 5.8 mph - N/A   Clear
10:15 AM 64.2 °F 56.3 °F 75% 30.24 in 10.0 mi SSW 4.6 mph - N/A   Clear
10:35 AM 65.7 °F 57.7 °F 76% 30.23 in 10.0 mi South 3.5 mph - N/A   Clear
10:55 AM 66.9 °F 58.1 °F 73% 30.23 in 10.0 mi WSW 3.5 mph - N/A   Clear
11:15 AM 68.4 °F 58.3 °F 70% 30.22 in 10.0 mi SW 5.8 mph - N/A   Clear
11:35 AM 70.0 °F 58.6 °F 67% 30.21 in 10.0 mi SW 5.8 mph - N/A   Clear
11:55 AM 71.1 °F 58.8 °F 65% 30.21 in 10.0 mi SSW 4.6 mph - N/A   Clear
12:15 PM 72.5 °F 59.7 °F 64% 30.20 in 10.0 mi WSW 4.6 mph - N/A   Clear
12:35 PM 72.9 °F 59.0 °F 62% 30.20 in 10.0 mi WSW 4.6 mph - N/A   Clear
12:55 PM 73.8 °F 58.3 °F 58% 30.20 in 10.0 mi Calm Calm - N/A   Clear
1:15 PM 73.0 °F 58.5 °F 60% 30.19 in 10.0 mi WNW 4.6 mph - N/A   Mostly Cloudy
1:35 PM 75.2 °F 58.8 °F 57% 30.18 in 10.0 mi SW 5.8 mph - N/A   Overcast
1:55 PM 72.5 °F 56.8 °F 58% 30.17 in 10.0 mi West 4.6 mph - N/A   Overcast
2:35 PM 75.4 °F 57.4 °F 53% 30.15 in 10.0 mi West 9.2 mph - N/A   Mostly Cloudy
2:55 PM 75.7 °F 55.8 °F 50% 30.14 in 10.0 mi WSW 5.8 mph - N/A   Scattered Clouds
3:15 PM 77.0 °F 55.9 °F 48% 30.12 in 10.0 mi WSW 9.2 mph - N/A   Scattered Clouds
3:35 PM 74.7 °F 55.2 °F 51% 30.12 in 10.0 mi NW 3.5 mph - N/A   Mostly Cloudy
3:55 PM 76.3 °F 55.8 °F 49% 30.11 in 10.0 mi SSW 4.6 mph - N/A   Scattered Clouds
4:15 PM 76.3 °F 55.6 °F 49% 30.10 in 10.0 mi South 4.6 mph - N/A   Scattered Clouds
4:35 PM 76.6 °F 55.8 °F 48% 30.09 in 10.0 mi SSW 6.9 mph - N/A   Scattered Clouds
4:55 PM 76.3 °F 54.9 °F 47% 30.08 in 10.0 mi WSW 6.9 mph - N/A   Clear
5:15 PM 76.6 °F 55.6 °F 48% 30.08 in 10.0 mi WSW 4.6 mph - N/A   Scattered Clouds
5:35 PM 75.4 °F 55.4 °F 50% 30.08 in 10.0 mi WSW 6.9 mph - N/A   Scattered Clouds
5:55 PM 75.2 °F 55.8 °F 51% 30.07 in 10.0 mi SW 5.8 mph - N/A   Clear
6:15 PM 74.1 °F 56.3 °F 54% 30.08 in 10.0 mi WSW 4.6 mph - N/A   Clear
6:35 PM 73.4 °F 56.3 °F 55% 30.08 in 10.0 mi Calm Calm - N/A   Clear
6:55 PM 72.5 °F 56.3 °F 57% 30.07 in 10.0 mi SW 3.5 mph - N/A   Clear
7:15 PM 72.0 °F 55.6 °F 56% 30.07 in 10.0 mi SSW 3.5 mph - N/A   Clear
7:35 PM 68.7 °F 56.5 °F 65% 30.06 in 10.0 mi Calm Calm - N/A   Clear
7:55 PM 66.7 °F 57.2 °F 71% 30.06 in 10.0 mi Calm Calm - N/A   Clear
8:15 PM 67.5 °F 56.7 °F 68% 30.05 in 10.0 mi Calm Calm - N/A   Clear
8:35 PM 66.9 °F 56.5 °F 69% 30.06 in 10.0 mi Calm Calm - N/A   Clear
8:55 PM 67.8 °F 57.0 °F 68% 30.06 in 10.0 mi Calm Calm - N/A   Clear
9:35 PM 66.6 °F 57.4 °F 72% 30.06 in 10.0 mi SSW 3.5 mph - N/A   Clear
9:55 PM 65.7 °F 57.4 °F 75% 30.05 in 10.0 mi Calm Calm - N/A   Clear
10:15 PM 65.3 °F 57.7 °F 76% 30.05 in 10.0 mi Calm Calm - N/A   Clear
10:35 PM 64.4 °F 58.1 °F 80% 30.05 in 10.0 mi South 4.6 mph - N/A   Clear
10:55 PM 64.6 °F 58.1 °F 79% 30.03 in 10.0 mi SSW 4.6 mph - N/A   Clear
11:35 PM 64.2 °F 57.2 °F 78% 30.03 in 10.0 mi SSW 5.8 mph - N/A   Clear
11:55 PM 62.2 °F 57.2 °F 84% 30.03 in 10.0 mi SSW 4.6 mph - N/A   Clear